Location: Berg
(47.2344°N, 9.5296°E)
Time: 16:17:09
(UTC+00:00)

AAUSAT CUBESAT 2 - Pass Details

Date: 07 December 2021
Orbit: 572 x 586 km, 97.5° (Epoch: 16 January)

Event Time Altitude Azimuth Distance (km) Brightness Sun altitude
Rises 05:41:10 0° 0° (N) 2,800 ? -11.9°
Reaches altitude 10° 05:43:42 10° 345° (NNW) 1,898 ? -11.5°
Maximum altitude 05:46:49 21° 295° (WNW) 1,309 ? -11.0°
Drops below altitude 10° 05:49:57 10° 245° (WSW) 1,894 ? -10.5°
Sets 05:52:28 0° 230° (SW) 2,792 ? -10.1°
